Location: Lawrence Hall of Science
(37.8785°N, 122.2415°W)
Time: 13:03:22
(UTC-08:00)

Cosmos 2151 - Visible Passes

Search period start: 19 December 2014 00:00
Search period end: 29 December 2014 00:00
Orbit: 584 x 607 km, 82.5° (Epoch: 19 December)

Date Brightness Start Highest point End Pass type
(mag) Time Alt. Az. Time Alt. Az. Time Alt. Az.
19 Dec 6.0 06:42:54 10° NE 06:44:14 11° ENE 06:45:34 10° E visible
20 Dec 5.7 06:51:33 10° NNE 06:54:27 18° ENE 06:57:20 10° ESE visible
25 Dec 5.8 06:04:46 10° NE 06:07:07 14° ENE 06:09:27 10° ESE visible
26 Dec 5.4 06:13:55 10° NNE 06:17:16 22° ENE 06:20:37 10° SE visible
27 Dec 4.6 06:23:27 10° NNE 06:27:22 35° ENE 06:31:16 10° SE visible
28 Dec 3.7 06:33:13 10° N 06:37:24 58° E 06:41:36 10° SSE visible
